SBI700 UNNT-ZBAD

Flight info

Callsign SBI700
Flight time N/A
Altitude 35000
Route OGATI1L OGATI A308 LEKOS P982 TR/K0828F370 P982 DARNO/K0832S1130 Y746 NIXAL G343 TMR/K0837S1160 W65 TUSLA/K0837S1130 W64 ELAPU ELAPU5L
Aircraft A319/M-SDE3FGHIRWY/LB1

Departure

Time N/A
Airport Novosibirsk Tolmachevo Airport (UNNT)

Arrival

Time 2026-05-01 12:52
Airport Beijing Daxing International Airport (ZBAD)
Time Latitude Longitude Altitude Speed Heading
2026-05-01 12:18 40.46865 113.08589 34820 ft 440 kts 191°
2026-05-01 12:18 40.43792 113.08559 34812 ft 449 kts 184°
2026-05-01 12:18 40.40685 113.09487 34809 ft 471 kts 167°
2026-05-01 12:18 40.37789 113.11704 34807 ft 494 kts 147°
2026-05-01 12:19 40.35498 113.15145 34807 ft 513 kts 126°
2026-05-01 12:19 40.34103 113.19508 34810 ft 526 kts 105°
2026-05-01 12:19 40.33189 113.29076 34808 ft 531 kts 97°
2026-05-01 12:20 40.32657 113.38752 34815 ft 533 kts 96°
2026-05-01 12:20 40.32100 113.48458 34813 ft 534 kts 97°
2026-05-01 12:21 40.31411 113.58149 34816 ft 534 kts 98°
2026-05-01 12:21 40.30660 113.67832 34823 ft 534 kts 98°
2026-05-01 12:22 40.29932 113.77529 34828 ft 535 kts 97°
2026-05-01 12:22 40.29218 113.87217 34830 ft 535 kts 97°
2026-05-01 12:23 40.28498 113.96929 34831 ft 536 kts 98°
2026-05-01 12:23 40.27761 114.06630 34831 ft 536 kts 98°
2026-05-01 12:24 40.27139 114.16303 34835 ft 537 kts 95°
2026-05-01 12:24 40.26786 114.26063 34839 ft 537 kts 94°
2026-05-01 12:25 40.26281 114.40701 34839 ft 537 kts 95°
2026-05-01 12:26 40.25839 114.50476 34846 ft 538 kts 95°
2026-05-01 12:26 40.25136 114.65140 34852 ft 538 kts 95°
2026-05-01 12:27 40.24453 114.79815 34857 ft 539 kts 95°
2026-05-01 12:28 40.23761 114.94510 34864 ft 540 kts 95°
2026-05-01 12:29 40.23032 115.09226 34617 ft 541 kts 95°
2026-05-01 12:29 40.22786 115.14137 34387 ft 541 kts 95°
2026-05-01 12:29 40.22289 115.23972 33927 ft 542 kts 95°
2026-05-01 12:30 40.21783 115.33809 33413 ft 542 kts 95°
2026-05-01 12:30 40.21452 115.38659 33153 ft 541 kts 102°
2026-05-01 12:30 40.20345 115.43369 32886 ft 532 kts 120°
2026-05-01 12:31 40.18435 115.47355 32637 ft 519 kts 136°
2026-05-01 12:31 40.15857 115.50544 32386 ft 503 kts 152°
2026-05-01 12:31 40.13866 115.52133 32211 ft 492 kts 162°
2026-05-01 12:31 40.09668 115.53974 31889 ft 477 kts 175°
2026-05-01 12:32 40.06436 115.55026 31637 ft 479 kts 174°
2026-05-01 12:32 39.99961 115.57148 31145 ft 480 kts 174°
2026-05-01 12:32 39.97775 115.57866 30985 ft 481 kts 174°
2026-05-01 12:33 39.94526 115.58932 30743 ft 481 kts 174°
2026-05-01 12:33 39.91289 115.59995 30507 ft 482 kts 174°
2026-05-01 12:33 39.88068 115.61050 30273 ft 482 kts 174°
2026-05-01 12:33 39.84775 115.62129 30032 ft 482 kts 173°
2026-05-01 12:34 39.81549 115.63184 29766 ft 484 kts 173°
2026-05-01 12:34 39.78284 115.64248 29485 ft 484 kts 173°
2026-05-01 12:34 39.75013 115.65313 29211 ft 485 kts 173°
2026-05-01 12:34 39.71748 115.66378 28429 ft 484 kts 172°
2026-05-01 12:35 39.68466 115.67445 27101 ft 489 kts 171°
2026-05-01 12:35 39.65151 115.68521 25827 ft 493 kts 170°
2026-05-01 12:35 39.61812 115.69603 24600 ft 495 kts 169°
2026-05-01 12:35 39.58470 115.70687 23444 ft 496 kts 168°
2026-05-01 12:36 39.55148 115.71791 22560 ft 487 kts 166°
2026-05-01 12:36 39.52083 115.73571 21719 ft 483 kts 149°
2026-05-01 12:36 39.49555 115.76398 20880 ft 479 kts 131°
2026-05-01 12:36 39.47802 115.80013 20073 ft 474 kts 114°
2026-05-01 12:37 39.46952 115.84102 19283 ft 470 kts 97°
2026-05-01 12:37 39.47035 115.88300 18517 ft 464 kts 82°
2026-05-01 12:37 39.47502 115.92409 17637 ft 457 kts 82°
2026-05-01 12:37 39.47961 115.96427 16383 ft 447 kts 82°
2026-05-01 12:38 39.48464 116.00352 15199 ft 437 kts 76°
2026-05-01 12:38 39.49643 116.03918 14125 ft 428 kts 57°
2026-05-01 12:38 39.51590 116.06750 13036 ft 419 kts 38°
2026-05-01 12:38 39.54084 116.08614 11849 ft 412 kts 20°
2026-05-01 12:39 39.56851 116.09312 10966 ft 399 kts 360°
2026-05-01 12:39 39.59509 116.09021 10755 ft 368 kts 352°
2026-05-01 12:39 39.61957 116.08652 10628 ft 341 kts 352°
2026-05-01 12:39 39.64197 116.08332 10504 ft 317 kts 352°
2026-05-01 12:40 39.66344 116.08026 10222 ft 304 kts 352°
2026-05-01 12:40 39.68428 116.07724 9992 ft 300 kts 352°
2026-05-01 12:40 39.70493 116.07416 9870 ft 299 kts 352°
2026-05-01 12:40 39.72561 116.07202 9744 ft 300 kts
2026-05-01 12:41 39.74555 116.07947 9616 ft 300 kts 30°
2026-05-01 12:41 39.76084 116.09756 9455 ft 300 kts 56°
2026-05-01 12:41 39.76871 116.12254 8832 ft 303 kts 83°
2026-05-01 12:41 39.77096 116.14969 8332 ft 303 kts 86°
2026-05-01 12:42 39.77333 116.17654 8025 ft 292 kts 85°
2026-05-01 12:42 39.77581 116.20227 7892 ft 281 kts 85°
2026-05-01 12:42 39.77825 116.22696 7764 ft 270 kts 85°
2026-05-01 12:42 39.78054 116.25084 7448 ft 265 kts 86°
2026-05-01 12:43 39.78270 116.27464 6907 ft 265 kts 86°
2026-05-01 12:43 39.78481 116.29839 6320 ft 267 kts 86°
2026-05-01 12:43 39.78696 116.32225 5880 ft 261 kts 86°
2026-05-01 12:43 39.78905 116.34491 5714 ft 244 kts 86°
2026-05-01 12:44 39.78772 116.36578 5594 ft 223 kts 118°
2026-05-01 12:44 39.77836 116.38009 5489 ft 200 kts 154°
2026-05-01 12:44 39.75247 116.38687 4931 ft 185 kts 176°
2026-05-01 12:45 39.72871 116.39068 4475 ft 160 kts 176°
2026-05-01 12:45 39.71801 116.39238 4271 ft 150 kts 176°
2026-05-01 12:45 39.70823 116.39394 4071 ft 135 kts 177°
2026-05-01 12:46 39.69910 116.39538 3902 ft 131 kts 177°
2026-05-01 12:46 39.69011 116.39680 3743 ft 130 kts 176°
2026-05-01 12:46 39.68113 116.39822 3564 ft 130 kts 176°
2026-05-01 12:46 39.67216 116.39963 3395 ft 130 kts 176°
2026-05-01 12:47 39.66427 116.40088 3245 ft 130 kts 176°
2026-05-01 12:47 39.65532 116.40230 3077 ft 130 kts 176°
2026-05-01 12:47 39.64636 116.40371 2907 ft 130 kts 175°
2026-05-01 12:47 39.63741 116.40513 2735 ft 129 kts 175°
2026-05-01 12:48 39.62846 116.40654 2561 ft 129 kts 175°
2026-05-01 12:48 39.61955 116.40795 2396 ft 130 kts 175°
2026-05-01 12:48 39.61060 116.40937 2229 ft 128 kts 175°
2026-05-01 12:48 39.60178 116.41079 2034 ft 127 kts 174°
2026-05-01 12:49 39.59303 116.41216 1844 ft 127 kts 173°
2026-05-01 12:49 39.58430 116.41352 1691 ft 126 kts 173°
2026-05-01 12:49 39.57564 116.41490 1501 ft 126 kts 172°
2026-05-01 12:49 39.56714 116.41626 1335 ft 126 kts 173°
2026-05-01 12:50 39.55846 116.41769 1158 ft 126 kts 172°
2026-05-01 12:50 39.54986 116.41905 1014 ft 124 kts 172°
2026-05-01 12:50 39.54125 116.42046 883 ft 126 kts 171°
2026-05-01 12:50 39.53254 116.42173 702 ft 126 kts 174°
2026-05-01 12:51 39.52375 116.42303 578 ft 127 kts 173°
2026-05-01 12:51 39.51493 116.42446 387 ft 128 kts 172°
2026-05-01 12:51 39.49758 116.42721 105 ft 108 kts 173°
2026-05-01 12:52 39.49160 116.42819 100 ft 62 kts 173°
2026-05-01 12:52 39.48782 116.42847 97 ft 23 kts 199°
2026-05-01 12:52 39.48612 116.42762 93 ft 25 kts 200°
2026-05-01 12:53 39.48533 116.42725 92 ft 0 kts 200°
2026-05-01 12:55 39.48517 116.42632 89 ft 13 kts 307°
2026-05-01 12:55 39.48617 116.42574 87 ft 22 kts 351°
2026-05-01 12:55 39.48825 116.42540 86 ft 38 kts 353°
2026-05-01 12:56 39.49092 116.42497 86 ft 35 kts 353°
2026-05-01 12:56 39.49287 116.42466 86 ft 27 kts 353°
2026-05-01 12:56 39.49416 116.42404 88 ft 24 kts 326°
2026-05-01 12:56 39.49507 116.42324 85 ft 4 kts 327°
2026-05-01 12:57 39.49567 116.42305 88 ft 14 kts 352°
2026-05-01 12:57 39.49857 116.42259 88 ft 28 kts 353°
2026-05-01 12:57 39.50039 116.42231 88 ft 13 kts 353°
2026-05-01 12:58 39.50078 116.42225 87 ft 0 kts 353°
2026-05-01 12:59 39.50082 116.42225 90 ft 3 kts 353°
2026-05-01 12:59 39.50272 116.42196 87 ft 24 kts 353°
2026-05-01 13:00 39.50681 116.42131 88 ft 28 kts 354°
2026-05-01 13:00 39.50817 116.42089 86 ft 16 kts 305°
2026-05-01 13:01 39.50737 116.41907 86 ft 8 kts 223°
2026-05-01 13:01 39.50731 116.41867 87 ft 6 kts 281°
2026-05-01 13:01 39.50751 116.41799 88 ft 1 kts 291°
2026-05-01 13:02 39.50753 116.41794 87 ft 0 kts 291°
2026-05-01 13:07 39.50753 116.41792 87 ft 0 kts 291°